Home   Weather   San Salvador   Past weeks

Flag for El Salvador Past Weather in San Salvador, El Salvador — Yesterday and Last 2 Weeks

Now
84 °F

Sunny.


Feels Like: 87 °F
Forecast: 54 / 85 °F
Wind: N/A

Location: San Salvador / Ilopango

Current Time: Jan 23, 2017 at 12:54:06 pm

Latest Report: Jan 23, 2017 at 11:50 am


Visibility: 10 mi

Pressure: 30.01 "Hg (27.83 "Hg at 667m altitude)

Humidity: 58%

Dew Point: 68 °F

Location of San SalvadorLocation

Past Weather in San Salvador — Graph

°F

San Salvador Temperature Yesterday

Maximum temperature yesterday: 79 °F (at 12:50 pm)
Minimum temperature yesterday: 63 °F (at 5:50 am)
Average temperature yesterday: 72 °F

High & Low Weather Summary for the Past Weeks

 TemperatureHumidityPressure
High90 °F (Jan 13, 2:50 pm)100% (Jan 18, 5:50 am)30.18 "Hg (Jan 18, 5:50 am)
Low63 °F (Jan 9, 5:50 am)35% (Jan 11, 2:50 pm)29.86 "Hg (Jan 9, 8:50 am)
Average75 °F67%30.03 "Hg
* Reported Jan 8 10:50 am — Jan 23 10:50 am, San Salvador, Weather by CustomWeather, © 2017

Note: Actual official high and low records may vary slightly from our data, if they occured in-between our weather recording intervals... More about our weather records

Advertising

San Salvador Weather History for the Previous 24 Hours

Scroll right to see more
 ConditionsComfort  
Time TempWeatherWind HumidityBarometerVisibility
10:50 am
Mon, Jan 23
82 °FSunny.8 mph45%30.01 "Hg10 mi
9:50 am79 °FSunny.12 mph51%30.01 "Hg10 mi
8:50 am75 °FSunny.5 mph69%30.01 "Hg10 mi
7:50 am72 °FSunny.3 mph88%30.01 "Hg10 mi
6:50 am64 °FRain. Fog.5 mph100%29.98 "Hg5 mi
5:50 am66 °FFog.5 mph94%29.98 "Hg3 mi
11:50 pm
Sun, Jan 22
68 °FFog.3 mph100%29.98 "Hg3 mi
10:50 pm68 °FFog.N/A100%29.98 "HgN/A
9:50 pm70 °FClear.2 mph94%29.98 "Hg10 mi
8:50 pm72 °FPassing clouds.3 mph88%29.98 "HgN/A
7:50 pm72 °FClear.5 mph94%29.95 "Hg10 mi
6:50 pm73 °FPassing clouds.2 mph89%29.95 "HgN/A
5:50 pm75 °FPassing clouds.6 mph89%29.98 "HgN/A
4:50 pm77 °FPassing clouds.No wind83%29.95 "HgN/A
3:50 pm77 °FPassing clouds.8 mph83%29.98 "HgN/A
2:50 pm77 °FScattered clouds.8 mph83%29.98 "HgN/A
1:50 pm77 °FScattered clouds.8 mph83%29.95 "HgN/A
12:50 pm79 °FPartly sunny.6 mph79%29.98 "HgN/A
Weather by CustomWeather, © 2017

See weather overviewHow to use our weather pages